Tracking 22287 objects as of 27-Jan-2021
HD Live streaming from Space Station
objects crossing your sky now

STARLINK-1410

Track STARLINK-1410 now!
10-day predictions
STARLINK-1410 is classified as:


NORAD ID: 45705
Int'l Code: 2020-035BA
Perigee: 554.0 km
Apogee: 554.8 km
Inclination: 53.0 °
Period: 95.6 minutes
Semi major axis: 6925 km
RCS: Unknown
Launch date: June 4, 2020
Source: United States (US)
Launch site: AIR FORCE EASTERN TEST RANGE (AFETR)
aabbcc
Your satellite tracking list
Your tracking list is empty




NASA's NSSDC Master Catalog

Two Line Element Set (TLE):
1 45705U 20035BA  21027.43759525  .00000055  00000-0  22582-4 0  9996
2 45705  53.0240 169.0124 0000585 115.2705 244.8345 15.06381848 37283
Source of the keplerian elements: AFSPC